Location: Unspecified
(53.6186°N, 1.3184°W)
Time: 08:25:06
(UTC+01:00)

ISS - Pass Details

Date: 19 September 2017
Orbit: 401 x 407 km, 51.6° (Epoch: 23 September)

Event Time Altitude Azimuth Distance (km) Brightness Sun altitude
Exits shadow 05:38:14 14° 224° (SW) 1,264 -1.9 -10.7°
Maximum altitude 05:38:34 14° 217° (SW) 1,256 -1.8 -10.6°
Drops below altitude 10° 05:40:21 10° 184° (S) 1,466 -1.2 -10.4°
Sets 05:43:09 0° 158° (SSE) 2,322 0.1 -10.0°
